This demonstration page uses our WeatherBlox Daily Observations layout. Learn more.

Left ArrowRight Arrow

41.86663, -103.66717

Hourly Observations for February 3, 2019

Temp ( °F °C ) Dew Point ( °F °C ) Humidity (%) Winds ( mph kmh ) Pressure ( in mb ) Visibility ( mi km ) Precip ( " mm )
12:53 am 00:53 Clear 30 -1.1 24 -4.4 79 79 N 5 7 29.60 1003 10 16 N/A
1:53 am 01:53 Clear 30 -1.1 24 -4.4 79 79 ESE 5 7 29.59 1002 10 16 N/A
2:53 am 02:53 Clear 30 -1.1 24 -4.4 79 79 SE 3 6 29.57 1001 10 16 N/A
3:53 am 03:53 Clear 29 -1.7 23 -5 78 78 ENE 7 11 29.54 1000 10 16 N/A
4:53 am 04:53 Clear 28 -2.2 24 -4.4 85 85 E 5 7 29.56 1001 10 16 N/A
5:53 am 05:53 Clear 28 -2.2 25 -3.9 88 88 N N/A 29.58 1002 10 16 N/A
6:53 am 06:53 Cloudy 32 undefined 28 -2.2 85 85 NE 3 6 29.59 1002 10 16 N/A
7:53 am 07:53 Cloudy with Light Rain 37 2.8 29 -1.7 73 73 VRB 7 11 29.52 1000 10 16 N/A
8:53 am 08:53 Cloudy 36 2.2 29 -1.7 76 76 ESE 9 15 29.52 1000 10 16 N/A
9:53 am 09:53 Cloudy 39 3.9 29 -1.7 67 67 NNE 6 9 29.53 1000 10 16 N/A
10:53 am 10:53 Mostly Cloudy 45 7.2 27 -2.8 49 49 E 16 26 29.46 998 10 16 N/A
11:30 am 11:30 Mostly Sunny 50 10 27 -2.8 41 41 SE 10 17 29.39 995 10 16 N/A
11:53 am 11:53 Mostly Cloudy 51 10.6 25 -3.9 36 36 SE 13 20 29.41 996 10 16 N/A
12:53 pm 12:53 Mostly Cloudy 52 11.1 23 -5 32 32 ESE 13 20 29.40 996 10 16 N/A
1:53 pm 13:53 Mostly Cloudy 54 12.2 27 -2.8 35 35 NW 32 52 29.50 999 10 16 N/A
2:06 pm 14:06 Cloudy with Light Rain 48 9 39 4 71 71 NW 15 24 29.48 998 10 16 N/A
2:53 pm 14:53 Cloudy 50 10 37 2.8 61 61 NNW 9 15 29.49 999 10 16 N/A
3:53 pm 15:53 Partly Cloudy 54 12.2 36 2.2 51 51 NNW 7 11 29.49 999 10 16 N/A
4:53 pm 16:53 Sunny 51 10.6 27 -2.8 39 39 W 21 33 29.52 1000 10 16 N/A
5:53 pm 17:53 Clear 47 8.3 28 -2.2 48 48 W 22 35 29.56 1001 10 16 N/A
6:53 pm 18:53 Clear 46 7.8 28 -2.2 50 50 WNW 23 37 29.56 1001 10 16 N/A
7:53 pm 19:53 Clear 45 7.2 29 -1.7 54 54 WNW 17 28 29.57 1001 10 16 N/A
8:53 pm 20:53 Clear 41 5 28 -2.2 60 60 NNW 10 17 29.62 1003 10 16 N/A
9:27 pm 21:27 Clear 22 -5.6 18 -7.8 85 85 NNE 20 31 29.83 1010 10 16 N/A
9:53 pm 21:53 Clear 19 -7.2 17 -8.3 92 92 NNE 20 31 29.71 1006 9 14 N/A
10:31 pm 22:31 Mostly Clear 19 -7.2 17 -8.3 92 92 VRB 7 11 29.91 1013 10 16 N/A
10:53 pm 22:53 Partly Cloudy 17 -8.3 15 -9.4 92 92 ENE 8 13 29.76 1008 9 14 N/A
11:06 pm 23:06 Mostly Cloudy 17 -8.3 15 -9.4 92 92 ENE 5 7 29.96 1014 10 16 N/A
11:53 pm 23:53 Mostly Cloudy 14 -10 12 -11.1 92 92 ENE 7 11 29.78 1009 9 14 N/A

Powered by AerisWeather